User: anonymous   Login
Location: South Tamworth Observatory
(43.8246°N, 71.3026°W)
Time: 00:00:32
(UTC-05:00)
Language:

Cosmos 2208 Rocket - Orbit

View from above orbital plane
View from above orbital plane
View from above satellite
View from above satellite

Ground track
Ground track

The orbit data is extracted from the following two-line orbital elements,

1 22081U 92053B   15060.24870594  .00000206  00000-0  84032-4 0  9992
2 22081 074.0454 170.1207 0036485 343.1867 016.8071 14.33194435178641
Epoch (UTC): 01 March 2015 05:58:08
Eccentricity: 0.0036485
inclination: 74.0454°
perigee height: 755 km
apogee height: 807 km
right ascension of ascending node: 170.1207°
argument of perigee: 343.1867°
revolutions per day: 14.33194435
mean anomaly at epoch: 16.8071°
orbit number at epoch: 17864

The dashed part of the orbit path shows where the satellite is in the earth's shadow,  

DLR